Regional Weather Roundup
Issued by NWS Newport/Morehead, NC

Current Version | Previous Version | Graphics & Text | Print | Product List | Glossary Off
Versions: 1 2 3 4 5 6 7 8 9 10 11 12 13 14 15 16 17 18 19 20 21 22 23 24 25 26 27 28 29 30 31 32 33 34 35 36 37 38 39 40 41 42 43 44 45 46 47 48 49 50

202
ASUS42 KMHX 140013
RWRMHX
WEATHER ROUNDUP FOR EASTERN NORTH CAROLINA
NATIONAL WEATHER SERVICE NEWPORT/MOREHEAD CITY NC
700 PM EST SAT FEB 13 2016

NOTE: "FAIR" INDICATES FEW OR NO CLOUDS BELOW 12,000 FEET
WITH NO SIGNIFICANT WEATHER AND/OR OBSTRUCTIONS TO VISIBILITY

NCZ015>017-031-032-045>047-102-103-140100-
NORTH COAST

CITY           SKY/WX    TMP DP  RH WIND       PRES   REMARKS
EDENTON        CLEAR     31   3  29 NW7       30.35R
ELIZABETH CITY CLEAR     27   5  39 W12       30.34R WCI  17
KITTY HAWK     CLEAR     28   2  32 CALM      30.31R
MANTEO         CLEAR     29   6  36 N12       30.32R WCI  20

$$

NCZ045>047-081-094-103-104-140100-
CENTRAL COAST

CITY           SKY/WX    TMP DP  RH WIND       PRES   REMARKS
FRISCO         CLEAR     32   8  36 NW14G25   30.31R
SWANQUARTER      N/A     28 N/A N/A NW5G14    30.33R

$$

NCZ095-097-098-100-101-140100-
SOUTHERN COAST

CITY           SKY/WX    TMP DP  RH WIND       PRES   REMARKS
BEAUFORT       CLEAR     31   8  38 NW7       30.35R
CEDAR ISLAND     N/A     32 N/A N/A NW22G32   30.39R WCI  19
JACKSONVILLE   CLEAR     31   6  35 NW8       30.36R
PINEY ISLAND   CLEAR    N/A N/A N/A NW17      30.34R
WILMINGTON     CLEAR     33   8  35 N6        30.35R


$$

NCZ011>013-027>030-043-044-078>080-089-090>093-098-140100-
COASTAL PLAIN

CITY           SKY/WX    TMP DP  RH WIND       PRES   REMARKS
AHOSKIE        CLEAR     27  -1  28 W3        30.36R
CLINTON        CLEAR     32   8  37 N3        30.37R
ELIZABETHTOWN  CLEAR     32   7  34 CALM      30.35R
GOLDSBORO      CLEAR     32   0  25 NW8       30.35R
GREENVILLE     CLEAR     30   3  31 N3        30.37R
HAVELOCK       CLEAR     32   5  32 NW14      30.36R
KENANSVILLE    CLEAR     30   8  40 CALM      30.37R
KINSTON        CLEAR     30   3  31 NW7       30.37R
NEW BERN       CLEAR     30   6  36 NW7       30.37R
RICHLANDS      CLEAR     30   5  34 CALM      30.37R
ROCKY MOUNT    CLEAR     28   2  32 NW7       30.37R
WASHINGTON     CLEAR     29   1  30 NW9       30.36R
WHITEVILLE     CLEAR     35   7  30 CALM      30.34R

$$

AMZ130-135-150-152-154-156-158-170-250-252-270-ANZ085-086-088-633-658-670-140100-
MARINE OBSERVATIONS

STATION/POSITION TIME  TEMP    WIND        PRES    WAVE   SWELL
                       AIR SEA DIR/SP/G            HT/PER HT/PER
                 (UTC) (F)     (DEG/KT/KT) (MB)    (FT/S) (FT/S)
CHESAPEAKE LIGHT 2300   27     340/ 22/ 25 1026.4
64 E VA BEACH    2350   30 49  330/ 25/ 31 1025.4    9/ 7
DUCK             2300   31                 1025.2
2 E DUCK         2311      41                N/A     4/ 6
OREGON INLET     2300   30 39              1025.8
13E OREGON INLT  0000      45                N/A     6/ 6
HATTERAS CG      2300   33 43              1025.2
DIAMOND BUOY     2350   36 72  320/ 21/ 29 1025.9    5/ 8   3/ 8
CAPE LOOKOUT     NOT AVBL
BEAUFORT LAB     2300   33 42              1025.5
30 SE NEW RVR IN 2308   38 60              1025.3
30 SE NEW RVR IN 2325      60                N/A     5/ 5
27 SE WRIGHTSVLE 2308   39 59  360/ 17/ 27 1024.7
5 SE WRIGHTSVLE  2308   38 50  360/ 16/ 23 1026.7
225 S CAPE HAT   2350   51 68  340/ 21/ 27   N/A    10/ 8
41 SE CHARLESTON 2350   46 66   10/ 10/ 12 1026.3    4/ 6   3/ 6

$$




USA.gov is the U.S. government's official web portal to all federal, state and local government web resources and services.